Simultaneous Nadir Overpasses (SNOs) Predictions

Prediction of SNOs between NOAA-20 and LANDSAT-8 Satellite Orbit:

Table of predicted SNOs for the next 14.0 days since TLE Epoch: 12/6/2024
Index Date (NOAA-20) Time (NOAA-20) Lat,Lon (NOAA-20) SZA (NOAA-20 ) Date (LANDSAT-8) Time (LANDSAT-8) Lat,Lon (LANDSAT-8) SZA (LANDSAT-8 ) Distance(km) Time Diff (sec)
1 12/07/2024 23:50:49 -70.42, -2.24 86.94 12/07/2024 23:51:59 -70.31, -1.26 87.06 38.60 70
2 12/08/2024 00:41:26 69.94, 165.81 92.58 12/08/2024 00:41:31 69.93, 165.84 92.57 1.57 5
3 12/08/2024 01:32:07 -69.80, -26.67 87.56 12/08/2024 01:31:01 -69.81, -26.68 87.54 1.89 66
4 12/10/2024 16:07:31 -70.01, 114.18 87.10 12/10/2024 16:08:29 -70.02, 114.23 87.09 2.15 58
5 12/10/2024 16:58:15 69.90, -78.35 92.80 12/10/2024 16:57:56 69.91, -78.29 92.81 2.62 19
6 12/10/2024 17:48:45 -69.18, 90.02 87.94 12/10/2024 17:47:36 -69.25, 88.45 87.85 62.25 69
7 12/13/2024 08:24:19 -69.93,-129.91 86.98 12/13/2024 08:24:54 -69.96,-129.96 86.96 3.01 35
8 12/13/2024 09:15:03 69.83, 37.55 92.93 12/13/2024 09:14:21 69.84, 37.52 92.94 1.20 42
9 12/15/2024 23:50:31 70.35, 177.93 93.60 12/15/2024 23:51:42 70.27, 178.76 93.50 32.09 71
10 12/16/2024 00:41:07 -69.93, -14.10 86.84 12/16/2024 00:41:16 -69.95, -14.07 86.82 2.60 9
11 12/16/2024 01:31:51 69.83, 153.35 93.07 12/16/2024 01:30:43 69.83, 153.41 93.07 2.45 68
12 12/18/2024 16:07:13 69.99, -65.72 93.32 12/18/2024 16:08:09 69.99, -65.73 93.31 0.74 56
13 12/18/2024 16:57:55 -69.88, 101.76 86.80 12/18/2024 16:57:39 -69.88, 101.75 86.80 0.84 16
14 12/18/2024 17:48:26 69.10, -89.80 92.41 12/18/2024 17:47:17 69.15, -91.58 92.50 70.94 69



Historial Predications of SNOs between NOAA-20 and LANDSAT-8
